Tracking 27079 objects as of 23-Mar-2023
HD Live streaming from Space Station
objects crossing your sky now

COSMOS 970 DEB

Track COSMOS 970 DEB now!
10-day predictions


NORAD ID: 14907
Int'l Code: 1977-121BL
Perigee: 1,006.6 km
Apogee: 1,121.0 km
Inclination: 66.0 °
Period: 106.3 minutes
Semi major axis: 7434 km
RCS: 0.0067 m2 (small)
Launch date: December 21, 1977
Source: Commonwealth of Independent States (former USSR) (CIS)
Launch site: TYURATAM MISSILE AND SPACE COMPLEX (TTMTR)

Note: This is SATELLITE DEBRIS
Your satellite tracking list
Your tracking list is empty




NASA's NSSDC Master Catalog

Two Line Element Set (TLE):
1 14907U 77121BL  23081.90467802  .00000320  00000-0  56880-3 0  9994
2 14907  66.0264 268.0503 0076927 317.9887 110.6621 13.54243230 41217
Source of the keplerian elements: AFSPC